(297432) = 2000 SD99

Discovered at Socorro on 2000-09-23 by LINEAR.

Orbit

Orbit type: Main Belt

Note: WebGL enabled browser required.

epoch2024-03-31.0
epoch JD2460400.5
perihelion date2023-06-10.50820
perihelion JD2460106.00820
argument of perihelion (°)52.52566
ascending node (°)347.22994
inclination (°)5.63406
eccentricity0.1181058
perihelion distance (AU)2.1244081
Tisserand w.r.t. Jupiter3.5
ΔV w.r.t. Earth (km/sec)9.2
semimajor axis (AU)2.4089148
mean anomaly (°)77.63274
mean daily motion (°/day)0.26361600
aphelion distance (AU)2.693
period (years)3.74
P-vector [x]0.76793188
P-vector [y]0.55231999
P-vector [z]0.32438134
Q-vector [x]-0.64016382
Q-vector [y]0.67895218
Q-vector [z]0.35946381
absolute magnitude16.8
phase slope0.15
uncertainty0
referenceMPEC 2024-E179
observations used447
oppositions13
arc length (days)8591
first opposition used2000
last opposition used2024
residual rms (arc-secs)0.72
perturbers coarse indicatorM-v
perturbers precise indicator003Ek
first observation date used2000-09-04.0
last observation date used2024-03-13.0
computer nameMPCLINUX
JD of orbit computation2456819.480625
perihelion JD uncertainty (days)1.5368E-04
argument of perihelion uncertainty (°)7.1307E-05
ascending node uncertainty (°)6.0770E-05
inclination uncertainty (°)8.4163E-06
eccentricity uncertainty 6.5654E-08
perihelion distance uncertainty (AU)1.5944E-07
Minimum Orbit Intersection Distances (in AU)
for orbit epoch: 2460400.5, reference: E2024-GB3
Mercury1.80168
Venus1.40788
Earth1.1372
Mars0.64935
Jupiter2.69666
Saturn6.77005
Uranus15.8496
Neptune27.7016

Observations

465 total observations over interval: 2000 09 04.32743 – 2024 03 13.145795
These data are available for download (format description).

Date (UT) J2000 RA J2000 Dec Magn Location Ref
2000 09 04.32743 00 57 34.29 +08 39 02.2 19.6 R 699 – Lowell Observatory-LONEOS MPS 21212
2000 09 04.35313 00 57 33.33 +08 39 05.3   699 – Lowell Observatory-LONEOS MPS 21212
2000 09 04.37899 00 57 32.68 +08 39 06.1   699 – Lowell Observatory-LONEOS MPS 21212
2000 09 04.40482 00 57 31.66 +08 39 09.1   699 – Lowell Observatory-LONEOS MPS 21212
2000 09 22.30534 00 44 37.96 +08 34 42.4 21.0 V 691 – Steward Observatory, Kitt Peak-Spacewatch MPS 21212
2000 09 22.33590 00 44 36.22 +08 34 39.2 20.0 V 691 – Steward Observatory, Kitt Peak-Spacewatch MPS 21212
2000 09 22.35795 00 44 34.95 +08 34 37.0 20.0 V 691 – Steward Observatory, Kitt Peak-Spacewatch MPS 21212
2000 09 23.32627 00 43 41.42 +08 33 00.2 19.5   704 – Lincoln Laboratory ETS, New Mexico MPS 19927
2000 09 23.34077 00 43 40.61 +08 32 59.4 19.1   704 – Lincoln Laboratory ETS, New Mexico MPS 19927
2000 09 23.38399 00 43 38.06 +08 32 54.7 19.5   704 – Lincoln Laboratory ETS, New Mexico MPS 19927
2000 09 27.25677 00 39 56.82 +08 25 16.7 18.2   704 – Lincoln Laboratory ETS, New Mexico MPS 19927
2000 09 27.27187 00 39 55.85 +08 25 15.7 19.3   704 – Lincoln Laboratory ETS, New Mexico MPS 19927
2000 09 27.28694 00 39 54.98 +08 25 13.5 19.3   704 – Lincoln Laboratory ETS, New Mexico MPS 19927
2000 09 27.30203 00 39 54.04 +08 25 11.4 19.3   704 – Lincoln Laboratory ETS, New Mexico MPS 19927
2000 09 27.31711 00 39 53.14 +08 25 09.5 19.2   704 – Lincoln Laboratory ETS, New Mexico MPS 19927
2000 10 03.34307 00 33 54.78 +08 10 10.4 18.7   704 – Lincoln Laboratory ETS, New Mexico MPS 19927
2000 10 03.35800 00 33 53.88 +08 10 07.9 19.3   704 – Lincoln Laboratory ETS, New Mexico MPS 19927
2000 10 03.37295 00 33 52.95 +08 10 04.3 19.3   704 – Lincoln Laboratory ETS, New Mexico MPS 19927
2000 10 03.38794 00 33 52.01 +08 10 03.1 19.2   704 – Lincoln Laboratory ETS, New Mexico MPS 19927
2000 10 03.40292 00 33 51.13 +08 10 00.4 20.2   704 – Lincoln Laboratory ETS, New Mexico MPS 19927
2000 10 25.22373 00 14 43.11 +07 07 51.1 18.8   704 – Lincoln Laboratory ETS, New Mexico MPS 21212
2000 10 25.25140 00 14 41.89 +07 07 47.6 19.4   704 – Lincoln Laboratory ETS, New Mexico MPS 21212
2000 10 25.26590 00 14 41.35 +07 07 44.5 19.6   704 – Lincoln Laboratory ETS, New Mexico MPS 21212
2000 10 25.27966 00 14 40.68 +07 07 43.5 19.4   704 – Lincoln Laboratory ETS, New Mexico MPS 21212
2002 03 05.229470 11 06 20.479 +06 12 22.26 19.96 V 645 – Apache Point-Sloan Digital Sky Survey MPS 120364
2002 03 05.232942 11 06 20.268 +06 12 23.08 20.79   645 – Apache Point-Sloan Digital Sky Survey MPS 120364
2002 03 17.18885 10 54 33.57 +06 56 22.6 21.2 V 691 – Steward Observatory, Kitt Peak-Spacewatch MPS 120364
2002 03 17.20997 10 54 32.37 +06 56 27.0 21.1 V 691 – Steward Observatory, Kitt Peak-Spacewatch MPS 120364
2002 03 17.23742 10 54 30.80 +06 56 32.2 21.1 V 691 – Steward Observatory, Kitt Peak-Spacewatch MPS 120364
2004 11 03.42590 03 53 57.86 +29 46 05.7 17.8 R 703 – Catalina Sky Survey MPS 120364
2004 11 03.43465 03 53 57.28 +29 46 04.8 21.4 R 703 – Catalina Sky Survey MPS 120364
2004 11 03.44487 03 53 56.77 +29 46 05.5 19.5 R 703 – Catalina Sky Survey MPS 120364
2004 11 03.45456 03 53 56.16 +29 46 05.9 18.6 R 703 – Catalina Sky Survey MPS 120364
2004 11 19.24855 03 37 02.99 +29 32 44.1 19.2   704 – Lincoln Laboratory ETS, New Mexico MPS 120364
2004 11 19.26076 03 37 02.17 +29 32 42.8 20.0   704 – Lincoln Laboratory ETS, New Mexico MPS 120364
2004 11 19.27299 03 37 01.27 +29 32 40.3 19.6   704 – Lincoln Laboratory ETS, New Mexico MPS 120364
2004 11 19.28522 03 37 00.43 +29 32 38.9 19.2   704 – Lincoln Laboratory ETS, New Mexico MPS 120364
2004 11 19.29745 03 36 59.63 +29 32 36.5 19.5   704 – Lincoln Laboratory ETS, New Mexico MPS 120364
2004 12 02.31161 03 23 09.71 +28 49 20.1 18.2 R 703 – Catalina Sky Survey MPS 120364
2004 12 02.31984 03 23 09.34 +28 49 18.3 18.9 R 703 – Catalina Sky Survey MPS 120364
2004 12 02.32806 03 23 08.81 +28 49 16.8 19.0 R 703 – Catalina Sky Survey MPS 120364
2004 12 02.33629 03 23 08.26 +28 49 14.0 19.0 R 703 – Catalina Sky Survey MPS 120364
2004 12 15.18098 03 13 22.45 +27 53 39.8 19.3   704 – Lincoln Laboratory ETS, New Mexico MPS 121608
2004 12 15.19457 03 13 21.93 +27 53 36.6 19.3   704 – Lincoln Laboratory ETS, New Mexico MPS 121608
2004 12 15.20812 03 13 21.41 +27 53 33.2 19.8   704 – Lincoln Laboratory ETS, New Mexico MPS 121608
2004 12 15.22117 03 13 21.01 +27 53 29.4 20.1   704 – Lincoln Laboratory ETS, New Mexico MPS 121608
2010 04 12.452054 14 27 45.258 -21 24 33.99 20.83 r F51 – Pan-STARRS 1, Haleakala MPS 337258
2010 04 12.461089 14 27 44.718 -21 24 32.96 20.40 r F51 – Pan-STARRS 1, Haleakala MPS 337258
2011 09 02.22167 22 19 35.14 -12 43 07.6 19.3 R H15 – ISON-NM Observatory, Mayhill MPS 390544
2011 09 02.23516 22 19 34.24 -12 43 08.8 19.4 R H15 – ISON-NM Observatory, Mayhill MPS 390544
2011 09 02.24870 22 19 33.42 -12 43 10.5 19.3 R H15 – ISON-NM Observatory, Mayhill MPS 390544
2011 09 02.26228 22 19 32.56 -12 43 13.1 19.4 R H15 – ISON-NM Observatory, Mayhill MPS 390544
2011 09 16.48839 22 06 30.27 -13 05 05.0 19.4 V E12 – Siding Spring Survey MPS 391039
2011 09 16.49980 22 06 29.66 -13 05 05.9 19.5 V E12 – Siding Spring Survey MPS 391039
2011 09 16.51111 22 06 29.08 -13 05 05.2 19.9 V E12 – Siding Spring Survey MPS 391039
2011 09 16.52243 22 06 28.54 -13 05 06.1 19.7 V E12 – Siding Spring Survey MPS 391039
2011 09 24.21304 22 01 08.40 -13 06 54.5 19.8 V G96 – Mt. Lemmon Survey MPS 392568
2011 09 24.21831 22 01 08.18 -13 06 54.5 19.6 V G96 – Mt. Lemmon Survey MPS 392568
2011 09 24.22347 22 01 07.96 -13 06 54.3 19.8 V G96 – Mt. Lemmon Survey MPS 392568
2011 09 24.22870 22 01 07.78 -13 06 54.3 19.9 V G96 – Mt. Lemmon Survey MPS 392568
2011 10 19.19453 21 56 14.28 -12 14 52.4 20.4 V G96 – Mt. Lemmon Survey MPS 396176
2011 10 19.19978 21 56 14.31 -12 14 51.1 20.2 V G96 – Mt. Lemmon Survey MPS 396176
2011 10 19.20501 21 56 14.38 -12 14 49.8 20.4 V G96 – Mt. Lemmon Survey MPS 396176
2011 10 19.21025 21 56 14.46 -12 14 48.5 20.4 V G96 – Mt. Lemmon Survey MPS 396176
2013 01 06.28682 09 58 55.38 +17 56 55.6 20.8 V 703 – Catalina Sky Survey MPS 450825
2013 01 06.29468 09 58 55.05 +17 56 55.9 21.4 V 703 – Catalina Sky Survey MPS 450825
2013 01 06.30251 09 58 54.84 +17 56 58.4 20.6 V 703 – Catalina Sky Survey MPS 450825
2013 01 06.46359 09 58 50.10 +17 57 18.8 20.5 V 691 – Steward Observatory, Kitt Peak-Spacewatch MPS 450825
2013 01 06.48126 09 58 49.58 +17 57 20.7 20.9 V 691 – Steward Observatory, Kitt Peak-Spacewatch MPS 450825
2013 01 06.49896 09 58 49.05 +17 57 22.9 20.9 V 691 – Steward Observatory, Kitt Peak-Spacewatch MPS 450825
2013 01 16.46580 09 52 35.61 +18 23 01.3 20.4 V 703 – Catalina Sky Survey MPS 452183
2013 01 16.47185 09 52 35.32 +18 23 02.5 20.1 V 703 – Catalina Sky Survey MPS 452183
2013 01 16.47795 09 52 35.07 +18 23 02.8 20.6 V 703 – Catalina Sky Survey MPS 452183
2013 01 16.48405 09 52 34.86 +18 23 04.5 19.9 V 703 – Catalina Sky Survey MPS 452183
2013 01 19.40209 09 50 13.47 +18 32 00.0 20.2 V 691 – Steward Observatory, Kitt Peak-Spacewatch MPS 453136
2013 01 19.41977 09 50 12.50 +18 32 03.5 20.1 V 691 – Steward Observatory, Kitt Peak-Spacewatch MPS 453136
2013 01 19.43748 09 50 11.57 +18 32 06.7 20.1 V 691 – Steward Observatory, Kitt Peak-Spacewatch MPS 453136
2013 02 07.35986 09 31 03.93 +19 31 34.2 20.1 V 703 – Catalina Sky Survey MPS 456124
2013 02 07.36498 09 31 03.64 +19 31 34.6 20.3 V 703 – Catalina Sky Survey MPS 456124
2013 02 07.37014 09 31 03.21 +19 31 35.9 19.6 V 703 – Catalina Sky Survey MPS 456124
2013 02 07.37531 09 31 02.89 +19 31 37.0 20.1 V 703 – Catalina Sky Survey MPS 456124
2013 02 14.21514 09 23 35.34 +19 48 22.1 19.6 V 703 – Catalina Sky Survey MPS 456124
2013 02 14.22601 09 23 34.58 +19 48 25.0 20.1 V 703 – Catalina Sky Survey MPS 456124
2013 02 14.23678 09 23 33.86 +19 48 26.3 19.8 V 703 – Catalina Sky Survey MPS 456124
2013 02 14.24759 09 23 33.00 +19 48 27.5 19.8 V 703 – Catalina Sky Survey MPS 456124
2013 02 15.19191 09 22 32.91 +19 50 23.6 20.2 V G96 – Mt. Lemmon Survey MPS 456124
2013 02 15.19881 09 22 32.44 +19 50 24.1 19.9 V G96 – Mt. Lemmon Survey MPS 456124
2013 02 15.20585 09 22 32.05 +19 50 24.7 19.8 V G96 – Mt. Lemmon Survey MPS 456124
